User: anonymous   Login
Location: Doux
(49.5045°N, 4.4321°E)
Time: 02:19:25
(UTC+00:00)
Language:

Okean 2 Rocket - Orbit

View from above orbital plane
View from above orbital plane
View from above satellite
View from above satellite

Ground track
Ground track

The orbit data is extracted from the following two-line orbital elements,

1 20511U 90018B   24194.36096301  .00000564  00000-0  69576-4 0  9997
2 20511  82.5209  68.5220 0015072 284.4536  75.5005 14.81102827832949
Epoch (UTC): 12 July 2024 08:39:47
Eccentricity: 0.0015072
inclination: 82.5209°
perigee height: 615 km
apogee height: 636 km
right ascension of ascending node: 68.5220°
argument of perigee: 284.4536°
revolutions per day: 14.81102827
mean anomaly at epoch: 75.5005°
orbit number at epoch: 83294

The dashed part of the orbit path shows where the satellite is in the earth's shadow,  

DLR